User: anonymous
Location: Oshawa
(43.9000°N, 78.8670°W)
Time: 16:29:19
(UTC-04:00)
Language:

Cosmos 1408 Rocket - Orbit

View from above orbital plane
View from above orbital plane
View from above satellite
View from above satellite

Ground track
Ground track

The orbit data is extracted from the following two-line orbital elements,

1 13553U 82092B   14208.41949344  .00000191  00000-0  20254-4 0  9629
2 13553 082.5709 137.4356 0020071 293.5651 199.9540 14.83556544720461
Epoch (UTC): 27 July 2014 10:04:04
Eccentricity: 0.0020071
inclination: 82.5709°
perigee height: 604 km
apogee height: 632 km
right ascension of ascending node: 137.4356°
argument of perigee: 293.5651°
revolutions per day: 14.83556544
mean anomaly at epoch: 199.9540°
orbit number at epoch: 72046

The dashed part of the orbit path shows where the satellite is in the earth's shadow,  

DLR